Location: Newark
(55.1225°N, 33.2808°E)
Time: 01:06:14
(UTC+00:00)

ISS - Pass Details

Date: 23 September 2019
Orbit: 411 x 421 km, 51.6° (Epoch: 23 October)

Event Time Altitude Azimuth Distance (km) Brightness Sun altitude
Rises 16:57:01 0° 224° (SW) 2,338 0.4 -11.1°
Reaches altitude 10° 16:59:21 10° 209° (SSW) 1,478 -0.8 -11.4°
Maximum altitude 17:02:03 23° 155° (SSE) 923 -2.4 -11.8°
Enters shadow 17:03:09 20° 125° (SE) 1,038 -2.4 -11.9°
